Time,TemperatureF,DewpointF,PressureIn,WindDirection,WindDirectionDegrees,WindSpeedMPH,WindSpeedGustMPH,Humidity,HourlyPrecipIn,Conditions,Clouds,dailyrainin,SoftwareType,DateUTC
2013-03-06 00:13:00,57.6,55.0,29.64,SSW,202,14.0,23.0,90,0.00,,,0.00,weatherlink.com 1.10,2013-03-06 05:13:00,
2013-03-06 00:29:00,57.5,55.0,29.64,SW,231,12.0,20.0,90,0.01,,,0.01,weatherlink.com 1.10,2013-03-06 05:29:00,
2013-03-06 00:43:00,57.8,55.0,29.63,SW,214,18.0,25.0,91,0.03,,,0.03,weatherlink.com 1.10,2013-03-06 05:43:00,
2013-03-06 00:58:00,58.0,56.0,29.61,SSW,197,28.0,32.0,93,0.04,,,0.04,weatherlink.com 1.10,2013-03-06 05:58:00,
2013-03-06 01:13:00,58.1,56.0,29.60,WSW,239,23.0,28.0,92,0.04,,,0.04,weatherlink.com 1.10,2013-03-06 06:13:00,
2013-03-06 01:28:00,58.2,56.0,29.59,SSW,201,13.0,25.0,91,0.02,,,0.04,weatherlink.com 1.10,2013-03-06 06:28:00,
2013-03-06 01:43:00,58.1,56.0,29.57,SSW,211,16.0,26.0,91,0.01,,,0.04,weatherlink.com 1.10,2013-03-06 06:43:00,
2013-03-06 01:58:00,58.3,56.0,29.56,WSW,243,19.0,25.0,90,0.00,,,0.04,weatherlink.com 1.10,2013-03-06 06:58:00,
2013-03-06 02:13:00,57.8,55.0,29.54,SW,216,16.0,23.0,90,0.00,,,0.04,weatherlink.com 1.10,2013-03-06 07:13:00,
2013-03-06 02:28:00,57.6,55.0,29.53,SSW,210,14.0,21.0,91,0.00,,,0.04,weatherlink.com 1.10,2013-03-06 07:28:00,
2013-03-06 02:43:00,57.0,55.0,29.52,WSW,238,12.0,17.0,92,0.00,,,0.04,weatherlink.com 1.10,2013-03-06 07:43:00,
2013-03-06 02:58:00,57.1,55.0,29.51,WSW,237,12.0,16.0,92,0.00,,,0.04,weatherlink.com 1.10,2013-03-06 07:58:00,
2013-03-06 03:13:00,56.9,55.0,29.51,SW,226,4.0,11.0,92,0.00,,,0.04,weatherlink.com 1.10,2013-03-06 08:13:00,
2013-03-06 03:28:00,56.5,55.0,29.50,SW,233,7.0,9.0,93,0.00,,,0.04,weatherlink.com 1.10,2013-03-06 08:28:00,
2013-03-06 03:43:00,56.3,54.0,29.50,WSW,239,6.0,9.0,92,0.00,,,0.04,weatherlink.com 1.10,2013-03-06 08:43:00,
2013-03-06 03:58:00,56.3,53.0,29.50,WSW,241,4.0,9.0,89,0.00,,,0.04,weatherlink.com 1.10,2013-03-06 08:58:00,
2013-03-06 04:13:00,56.1,52.0,29.50,West,261,3.0,8.0,87,0.00,,,0.04,weatherlink.com 1.10,2013-03-06 09:13:00,
2013-03-06 04:28:00,55.7,51.0,29.50,West,266,3.0,11.0,84,0.00,,,0.04,weatherlink.com 1.10,2013-03-06 09:28:00,
2013-03-06 04:43:00,55.2,50.0,29.50,WSW,246,2.0,7.0,83,0.00,,,0.04,weatherlink.com 1.10,2013-03-06 09:43:00,
2013-03-06 04:58:00,54.9,50.0,29.50,West,273,4.0,7.0,82,0.00,,,0.00,weatherlink.com 1.10,2013-03-06 09:58:00,
2013-03-06 05:13:00,54.6,49.0,29.50,West,281,2.0,9.0,80,0.00,,,0.00,weatherlink.com 1.10,2013-03-06 10:13:00,
2013-03-06 05:28:00,54.3,48.0,29.51,SW,233,5.0,9.0,79,0.00,,,0.00,weatherlink.com 1.10,2013-03-06 10:28:00,
2013-03-06 05:43:00,53.1,45.0,29.51,West,272,4.0,9.0,73,0.00,,,0.00,weatherlink.com 1.10,2013-03-06 10:43:00,
2013-03-06 05:59:00,52.0,44.0,29.51,SSW,210,3.0,8.0,74,0.00,,,0.00,weatherlink.com 1.10,2013-03-06 10:59:00,
2013-03-06 06:14:00,51.4,44.0,29.51,West,269,2.0,13.0,77,0.00,,,0.00,weatherlink.com 1.10,2013-03-06 11:14:00,
2013-03-06 06:29:00,50.5,44.0,29.51,West,263,8.0,12.0,77,0.00,,,0.00,weatherlink.com 1.10,2013-03-06 11:29:00,
2013-03-06 06:44:00,50.1,43.0,29.51,West,275,9.0,18.0,76,0.00,,,0.00,weatherlink.com 1.10,2013-03-06 11:44:00,
2013-03-06 06:59:00,50.1,43.0,29.52,WSW,243,5.0,9.0,76,0.00,,,0.00,weatherlink.com 1.10,2013-03-06 11:59:00,
2013-03-06 07:14:00,48.0,43.0,29.53,WSW,255,1.0,14.0,84,0.00,,,0.00,weatherlink.com 1.10,2013-03-06 12:14:00,
2013-03-06 07:29:00,46.2,42.0,29.54,SW,228,5.0,11.0,85,0.00,,,0.00,weatherlink.com 1.10,2013-03-06 12:29:00,
2013-03-06 07:44:00,45.7,42.0,29.55,SSW,209,2.0,9.0,85,0.00,,,0.00,weatherlink.com 1.10,2013-03-06 12:44:00,
2013-03-06 07:59:00,45.3,40.0,29.55,West,278,3.0,12.0,82,0.00,,,0.00,weatherlink.com 1.10,2013-03-06 12:59:00,
2013-03-06 08:14:00,45.3,39.0,29.56,NW,305,4.0,10.0,79,0.00,,,0.00,weatherlink.com 1.10,2013-03-06 13:14:00,
2013-03-06 08:29:00,43.9,38.0,29.58,NW,319,3.0,15.0,79,0.00,,,0.00,weatherlink.com 1.10,2013-03-06 13:29:00,
2013-03-06 08:44:00,44.6,38.0,29.58,WNW,293,7.0,9.0,77,0.00,,,0.00,weatherlink.com 1.10,2013-03-06 13:44:00,
2013-03-06 08:59:00,44.3,37.0,29.59,SSE,150,3.0,12.0,76,0.00,,,0.00,weatherlink.com 1.10,2013-03-06 13:59:00,
2013-03-06 09:14:00,43.3,35.0,29.59,NNE,30,3.0,11.0,73,0.00,,,0.00,weatherlink.com 1.10,2013-03-06 14:14:00,
2013-03-06 09:29:00,43.9,35.0,29.60,NW,307,3.0,12.0,72,0.00,,,0.00,weatherlink.com 1.10,2013-03-06 14:29:00,
2013-03-06 09:44:00,44.2,36.0,29.61,SSW,198,1.0,10.0,73,0.00,,,0.00,weatherlink.com 1.10,2013-03-06 14:44:00,
2013-03-06 09:59:00,43.4,36.0,29.61,SSW,212,4.0,12.0,76,0.00,,,0.00,weatherlink.com 1.10,2013-03-06 14:59:00,
2013-03-06 10:14:00,43.5,37.0,29.60,SW,233,3.0,8.0,79,0.00,,,0.00,weatherlink.com 1.10,2013-03-06 15:14:00,
2013-03-06 10:29:00,44.9,36.0,29.60,West,273,8.0,11.0,71,0.00,,,0.00,weatherlink.com 1.10,2013-03-06 15:29:00,
2013-03-06 10:44:00,44.6,35.0,29.60,NNW,330,2.0,7.0,70,0.00,,,0.00,weatherlink.com 1.10,2013-03-06 15:44:00,
2013-03-06 10:59:00,44.3,35.0,29.60,West,271,5.0,9.0,69,0.00,,,0.00,weatherlink.com 1.10,2013-03-06 15:59:00,
2013-03-06 11:14:00,45.3,34.0,29.60,West,259,1.0,9.0,65,0.00,,,0.00,weatherlink.com 1.10,2013-03-06 16:14:00,
2013-03-06 11:29:00,46.0,34.0,29.60,West,278,3.0,14.0,64,0.00,,,0.00,weatherlink.com 1.10,2013-03-06 16:29:00,
2013-03-06 11:44:00,46.1,33.0,29.60,West,264,4.0,14.0,60,0.00,,,0.00,weatherlink.com 1.10,2013-03-06 16:44:00,
2013-03-06 11:59:00,45.5,33.0,29.60,WSW,252,6.0,10.0,62,0.00,,,0.00,weatherlink.com 1.10,2013-03-06 16:59:00,
2013-03-06 12:14:00,45.6,32.0,29.60,West,278,6.0,12.0,59,0.00,,,0.00,weatherlink.com 1.10,2013-03-06 17:14:00,
2013-03-06 12:29:00,45.3,32.0,29.60,SW,222,6.0,15.0,61,0.00,,,0.00,weatherlink.com 1.10,2013-03-06 17:29:00,
2013-03-06 12:44:00,46.1,32.0,29.59,WNW,298,8.0,15.0,59,0.00,,,0.00,weatherlink.com 1.10,2013-03-06 17:44:00,
2013-03-06 12:59:00,46.4,31.0,29.58,WSW,248,9.0,14.0,56,0.00,,,0.00,weatherlink.com 1.10,2013-03-06 17:59:00,
2013-03-06 13:15:00,46.9,31.0,29.58,WNW,284,4.0,15.0,55,0.00,,,0.00,weatherlink.com 1.10,2013-03-06 18:15:00,
2013-03-06 13:30:00,46.1,31.0,29.58,WSW,253,4.0,14.0,55,0.00,,,0.00,weatherlink.com 1.10,2013-03-06 18:30:00,
2013-03-06 13:45:00,46.1,30.0,29.57,West,281,6.0,19.0,54,0.00,,,0.00,weatherlink.com 1.10,2013-03-06 18:45:00,
2013-03-06 14:00:00,46.8,31.0,29.58,West,266,6.0,11.0,54,0.00,,,0.00,weatherlink.com 1.10,2013-03-06 19:00:00,
2013-03-06 14:15:00,45.6,31.0,29.58,West,262,5.0,12.0,58,0.00,,,0.00,weatherlink.com 1.10,2013-03-06 19:15:00,
2013-03-06 14:30:00,45.4,32.0,29.58,WNW,288,4.0,15.0,59,0.00,,,0.00,weatherlink.com 1.10,2013-03-06 19:30:00,
2013-03-06 14:45:00,45.4,32.0,29.58,NNE,32,3.0,12.0,59,0.00,,,0.00,weatherlink.com 1.10,2013-03-06 19:45:00,
2013-03-06 15:00:00,45.6,31.0,29.58,WSW,240,3.0,12.0,58,0.00,,,0.00,weatherlink.com 1.10,2013-03-06 20:00:00,
2013-03-06 15:15:00,45.7,31.0,29.58,WNW,300,2.0,14.0,58,0.00,,,0.00,weatherlink.com 1.10,2013-03-06 20:15:00,
2013-03-06 15:30:00,46.1,32.0,29.58,WSW,257,9.0,16.0,58,0.00,,,0.00,weatherlink.com 1.10,2013-03-06 20:30:00,
2013-03-06 15:45:00,45.6,32.0,29.60,West,271,4.0,11.0,59,0.00,,,0.00,weatherlink.com 1.10,2013-03-06 20:45:00,
2013-03-06 16:00:00,45.4,33.0,29.60,NW,314,4.0,12.0,62,0.00,,,0.00,weatherlink.com 1.10,2013-03-06 21:00:00,
2013-03-06 16:15:00,45.2,34.0,29.61,NNW,342,11.0,11.0,65,0.00,,,0.00,weatherlink.com 1.10,2013-03-06 21:15:00,
2013-03-06 16:30:00,44.7,35.0,29.61,West,270,6.0,13.0,68,0.00,,,0.00,weatherlink.com 1.10,2013-03-06 21:30:00,
2013-03-06 16:45:00,44.0,35.0,29.64,WNW,295,6.0,14.0,72,0.00,,,0.00,weatherlink.com 1.10,2013-03-06 21:45:00,
2013-03-06 17:00:00,44.0,36.0,29.64,WNW,288,2.0,14.0,73,0.00,,,0.00,weatherlink.com 1.10,2013-03-06 22:00:00,
2013-03-06 17:15:00,43.7,36.0,29.66,WNW,300,5.0,15.0,73,0.00,,,0.00,weatherlink.com 1.10,2013-03-06 22:15:00,
2013-03-06 17:30:00,43.5,36.0,29.67,West,274,4.0,11.0,75,0.00,,,0.00,weatherlink.com 1.10,2013-03-06 22:30:00,
2013-03-06 17:45:00,43.1,36.0,29.68,NW,304,4.0,11.0,76,0.00,,,0.00,weatherlink.com 1.10,2013-03-06 22:45:00,
2013-03-06 18:00:00,42.3,37.0,29.70,WNW,283,5.0,10.0,80,0.00,,,0.00,weatherlink.com 1.10,2013-03-06 23:00:00,
2013-03-06 18:15:00,42.0,37.0,29.71,West,277,5.0,9.0,81,0.00,,,0.00,weatherlink.com 1.10,2013-03-06 23:15:00,
2013-03-06 18:30:00,41.6,37.0,29.73,NNE,23,2.0,11.0,82,0.00,,,0.00,weatherlink.com 1.10,2013-03-06 23:30:00,
2013-03-06 18:45:00,40.9,37.0,29.75,North,9,6.0,9.0,85,0.00,,,0.00,weatherlink.com 1.10,2013-03-06 23:45:00,
2013-03-06 19:00:00,40.4,37.0,29.76,WNW,299,5.0,13.0,86,0.00,,,0.00,weatherlink.com 1.10,2013-03-07 00:00:00,
2013-03-06 19:15:00,40.4,37.0,29.77,WNW,290,2.0,17.0,86,0.00,,,0.00,weatherlink.com 1.10,2013-03-07 00:15:00,
2013-03-06 19:30:00,40.5,37.0,29.79,NNW,347,2.0,13.0,86,0.00,,,0.00,weatherlink.com 1.10,2013-03-07 00:30:00,
2013-03-06 19:45:00,40.8,37.0,29.80,West,267,4.0,14.0,85,0.00,,,0.00,weatherlink.com 1.10,2013-03-07 00:45:00,
2013-03-06 20:00:00,41.1,36.0,29.81,NE,37,5.0,13.0,83,0.00,,,0.00,weatherlink.com 1.10,2013-03-07 01:00:00,
2013-03-06 20:15:00,41.0,36.0,29.81,ENE,68,2.0,11.0,82,0.00,,,0.00,weatherlink.com 1.10,2013-03-07 01:15:00,
2013-03-06 20:30:00,41.0,36.0,29.82,NW,313,4.0,21.0,82,0.01,,,0.01,weatherlink.com 1.10,2013-03-07 01:30:00,
2013-03-06 20:45:00,41.1,36.0,29.82,NW,309,1.0,18.0,81,0.01,,,0.01,weatherlink.com 1.10,2013-03-07 01:45:00,
2013-03-06 21:00:00,41.2,36.0,29.83,West,276,5.0,10.0,81,0.01,,,0.01,weatherlink.com 1.10,2013-03-07 02:00:00,
2013-03-06 21:16:00,41.4,36.0,29.85,WNW,290,0.0,14.0,81,0.01,,,0.01,weatherlink.com 1.10,2013-03-07 02:16:00,
2013-03-06 21:31:00,41.6,36.0,29.86,NNW,332,3.0,12.0,81,0.00,,,0.01,weatherlink.com 1.10,2013-03-07 02:31:00,
2013-03-06 21:46:00,41.7,36.0,29.87,NNE,29,3.0,9.0,81,0.00,,,0.01,weatherlink.com 1.10,2013-03-07 02:46:00,
2013-03-06 22:01:00,41.6,37.0,29.88,NW,321,5.0,8.0,82,0.00,,,0.01,weatherlink.com 1.10,2013-03-07 03:01:00,
2013-03-06 22:16:00,41.4,37.0,29.88,NW,321,2.0,11.0,83,0.00,,,0.01,weatherlink.com 1.10,2013-03-07 03:16:00,
2013-03-06 22:31:00,41.3,37.0,29.89,NNW,342,2.0,14.0,83,0.00,,,0.01,weatherlink.com 1.10,2013-03-07 03:31:00,
2013-03-06 22:46:00,41.3,36.0,29.89,WNW,294,3.0,8.0,82,0.00,,,0.01,weatherlink.com 1.10,2013-03-07 03:46:00,
2013-03-06 23:01:00,41.4,36.0,29.89,WNW,290,10.0,13.0,81,0.00,,,0.01,weatherlink.com 1.10,2013-03-07 04:01:00,
2013-03-06 23:16:00,41.4,36.0,29.89,WNW,298,1.0,10.0,81,0.00,,,0.01,weatherlink.com 1.10,2013-03-07 04:16:00,
2013-03-06 23:31:00,41.5,36.0,29.90,WNW,293,4.0,11.0,80,0.00,,,0.01,weatherlink.com 1.10,2013-03-07 04:31:00,
2013-03-06 23:46:00,41.4,36.0,29.90,NNE,19,5.0,10.0,80,0.00,,,0.01,weatherlink.com 1.10,2013-03-07 04:46:00,